Weather Roundup
Issued by NWS Chicago, IL

Home | Current Version | Previous Version | Graphics & Text | Print | Product List | Glossary On
Versions: 1 2 3 4 5 6 7 8 9 10 11 12 13 14 15 16 17 18 19 20 21 22 23 24 25 26 27 28 29 30 31 32 33 34 35 36 37 38 39 40 41 42 43 44 45 46 47 48 49 50
000
NZUS59 KLOT 282209
HRRLOT

CHICAGO AREA WEATHER ROUNDUP
NATIONAL WEATHER SERVICE CHICAGO/ROMEOVILLE IL
500 PM CDT FRI APR 28 2017

NOTE: "FAIR" INDICATES FEW OR NO CLOUDS BELOW 12,000 FEET WITH NO
SIGNIFICANT WEATHER AND/OR OBSTRUCTIONS TO VISIBILITY.

* THESE STATIONS ARE NOT UNDER NWS QUALITY CONTROL. THEY ALSO MAY NOT
  REPORT WEATHER SUCH AS PRECIPITATION OR FOG.

ILZ005-006-012>014-019>023-282300-
NORTHEAST ILLINOIS

CITY           SKY/WX    TMP DP  RH WIND       PRES   REMARKS
OHARE          CLOUDY    58  44  60 E10       29.86R
MIDWAY         PTSUNNY   57  46  66 E8        29.87R
AURORA         CLOUDY    60  49  66 SE12      29.85R
LANSING*       CLOUDY    60  50  70 SE6       29.85R
JOLIET*        CLOUDY    60  51  71 SE7       29.86R
WAUKEGAN       CLOUDY    48  41  76 E9        29.87F
DUPAGE AIRPORT CLOUDY    59  49  69 E10       29.84R HAZE
WHEELING       PTSUNNY   53  45  74 NE8       29.89R
KANKAKEE*      DRIZZLE   59  51  75 S7        29.85R
MORRIS*        CLOUDY    59  50  70 E8        29.84R
LEWIS AIRPORT* CLOUDY    59  52  76 SE10      29.86R
NORTHERLY ISL    N/A     49  45  86 N6          N/A
$$

WIZ051-052-058>065-066-070>072-282300-
SOUTHEAST WISCONSIN

CITY           SKY/WX    TMP DP  RH WIND       PRES   REMARKS
MILWAUKEE      CLOUDY    47  40  76 E6        29.89F
KENOSHA*       CLOUDY    47  40  76 E8        29.89S
RACINE*        CLOUDY    47  39  74 E3        29.91F
WAUKESHA       LGT RAIN  52  39  62 CALM      29.89F
WEST BEND      LGT RAIN  50  37  62 E5        29.89F
$$

INZ001>003-010>013-019-020-282300-
NORTHWEST INDIANA

CITY           SKY/WX    TMP DP  RH WIND       PRES   REMARKS
GARY*          PTSUNNY   54  45  71 VRB5      29.85F
MICHIGAN CITY* NOT AVBL
RENSSELAER*    NOT AVBL
VALPARAISO     MOSUNNY   61  49  64 S9        29.84S
$$

LMZ740>746-282300-
SOUTHERN LAKE MICHIGAN

STATION/POSITION TIME  SKY/WX   TEMP WIND        PRES    VSBY
                                AIR  DIR/SP/G
                 (UTC)          (F)  (DEG/KT/KT) (MB)    (MI)
HARRISON CRIB    2130            47   50/ 15/ 16   N/A
BURNHAM HARBOR   2200            49   10/  4/  9   N/A
CALUMET HARBOR   2142            49   30/  6/ 11 1010.8R
BURNS HARBOR     2140            62  140/  8/ 13 1011.2F
MICHIGAN CITY    2140            61  120/  6/  8   N/A
$$

ABBREVIATIONS USED IN REMARKS
   TC - TEMPERATURE IN CELSIUS
  WCI - WIND CHILL INDEX
   HX - HEAT INDEX
  VSB - VISIBILITY
$$




USA.gov is the U.S. government's official web portal to all federal, state and local government web resources and services.